"Period start","avg(HW err(1)/warn(2) (#))","avg(Visibility (m))","avg(Weather code (#))","avg(Precip intensity (mm/h))","min(HW err(1)/warn(2) (#))","max(HW err(1)/warn(2) (#))","std(HW err(1)/warn(2) (#))","med(HW err(1)/warn(2) (#))","min(Visibility (m))","max(Visibility (m))","std(Visibility (m))","med(Visibility (m))","min(Weather code (#))","max(Weather code (#))","std(Weather code (#))","med(Weather code (#))","min(Precip intensity (mm/h))","max(Precip intensity (mm/h))","std(Precip intensity (mm/h))","med(Precip intensity (mm/h))"
2014-09-16 00:00:00,2,41315,0,0.00,2,2,0,2,16875,50000,10867,45036,0,0,0,0,0.00,0.00,0.00,0.00
2014-09-16 00:10:00,2,41933,0,0.00,2,2,0,2,18014,50000,10289,46256,0,0,0,0,0.00,0.00,0.00,0.00
2014-09-16 00:20:00,0,47040,0,0.00,0,0,0,0,44157,50000,2264,46769,0,0,0,0,0.00,0.00,0.00,0.00
2014-09-16 00:30:00,0,47282,0,0.00,0,0,0,0,37208,50000,4024,48967,0,0,0,0,0.00,0.00,0.00,0.00
2014-09-16 00:40:00,0,47525,0,0.00,0,0,0,0,43618,50000,2340,47522,0,0,0,0,0.00,0.00,0.00,0.00
2014-09-16 00:50:00,0,46006,0,0.00,0,0,0,0,40621,50000,3407,46047,0,0,0,0,0.00,0.00,0.00,0.00
2014-09-16 01:00:00,0,45759,0,0.00,0,0,0,0,36312,50000,4390,46586,0,0,0,0,0.00,0.00,0.00,0.00
2014-09-16 01:10:00,0,42362,0,0.00,0,0,0,0,28219,50000,7162,45963,0,0,0,0,0.00,0.00,0.00,0.00
2014-09-16 01:20:00,0,44586,0,0.00,0,0,0,0,34963,50000,5320,45825,0,0,0,0,0.00,0.00,0.00,0.00
2014-09-16 01:30:00,1,44146,0,0.00,0,2,1,2,35557,50000,5556,45588,0,0,0,0,0.00,0.00,0.00,0.00
2014-09-16 01:40:00,2,43898,0,0.00,2,2,0,2,40174,50000,3193,42794,0,0,0,0,0.00,0.00,0.00,0.00
2014-09-16 01:50:00,2,40535,0,0.00,2,2,0,2,31165,50000,7006,38657,0,0,0,0,0.00,0.00,0.00,0.00
2014-09-16 02:00:00,2,40970,0,0.00,2,2,0,2,33545,49583,5270,38891,0,0,0,0,0.00,0.00,0.00,0.00
2014-09-16 02:10:00,1,43538,0,0.00,0,2,1,2,37094,50000,4751,42864,0,0,0,0,0.00,0.00,0.00,0.00
2014-09-16 02:20:00,0,45084,0,0.00,0,0,0,0,38563,49042,2900,45943,0,0,0,0,0.00,0.00,0.00,0.00
2014-09-16 02:30:00,0,40060,0,0.00,0,0,0,0,35396,44481,2553,39634,0,0,0,0,0.00,0.00,0.00,0.00
2014-09-16 02:40:00,2,42782,0,0.00,2,2,0,2,34474,50000,5380,43967,0,0,0,0,0.00,0.00,0.00,0.00
2014-09-16 02:50:00,2,38580,0,0.00,2,2,0,2,32342,45590,4152,38954,0,0,0,0,0.00,0.00,0.00,0.00
2014-09-16 03:00:00,2,43555,0,0.00,2,2,0,2,35550,49726,3455,44350,0,0,0,0,0.00,0.00,0.00,0.00
2014-09-16 03:10:00,2,45628,0,0.00,2,2,0,2,39423,50000,3060,45911,0,0,0,0,0.00,0.00,0.00,0.00
2014-09-16 03:20:00,2,42369,0,0.00,2,2,0,2,37557,49100,3255,42910,0,0,0,0,0.00,0.00,0.00,0.00
2014-09-16 03:30:00,2,45953,0,0.00,2,2,0,2,36004,50000,4223,45634,0,0,0,0,0.00,0.00,0.00,0.00
2014-09-16 03:40:00,2,44324,0,0.00,2,2,0,2,36478,50000,4008,44422,0,0,0,0,0.00,0.00,0.00,0.00
2014-09-16 03:50:00,2,44144,0,0.00,2,2,0,2,38016,48243,3171,44954,0,0,0,0,0.00,0.00,0.00,0.00
2014-09-16 04:00:00,2,46089,0,0.00,2,2,0,2,40444,50000,3487,45831,0,0,0,0,0.00,0.00,0.00,0.00
2014-09-16 04:10:00,2,42703,0,0.00,2,2,0,2,36912,47875,3486,42932,0,0,0,0,0.00,0.00,0.00,0.00
2014-09-16 04:20:00,2,42516,0,0.00,2,2,0,2,36019,46921,3309,43454,0,0,0,0,0.00,0.00,0.00,0.00
2014-09-16 04:30:00,2,42687,0,0.00,2,2,0,2,35867,50000,4275,43108,0,0,0,0,0.00,0.00,0.00,0.00
2014-09-16 04:40:00,2,42340,0,0.00,2,2,0,2,35744,49469,4319,42527,0,0,0,0,0.00,0.00,0.00,0.00
2014-09-16 04:50:00,2,42378,0,0.00,2,2,0,2,37424,46006,3032,42674,0,0,0,0,0.00,0.00,0.00,0.00
2014-09-16 05:00:00,2,39413,0,0.00,2,2,0,2,28131,47021,4970,39586,0,0,0,0,0.00,0.00,0.00,0.00
2014-09-16 05:10:00,2,42338,0,0.00,2,2,0,2,36664,45498,3067,42732,0,0,0,0,0.00,0.00,0.00,0.00
2014-09-16 05:20:00,2,49415,0,0.00,2,2,0,2,46916,50000,991,50000,0,0,0,0,0.00,0.00,0.00,0.00
2014-09-16 05:30:00,2,46729,0,0.00,2,2,0,2,42638,50000,2994,47280,0,0,0,0,0.00,0.00,0.00,0.00
2014-09-16 05:40:00,2,45480,0,0.00,2,2,0,2,37177,50000,3660,45918,0,0,0,0,0.00,0.00,0.00,0.00
2014-09-16 05:50:00,2,42935,0,0.00,2,2,0,2,32422,50000,5251,43470,0,0,0,0,0.00,0.00,0.00,0.00
2014-09-16 06:00:00,2,48330,0,0.00,2,2,0,2,42204,50000,2338,49248,0,0,0,0,0.00,0.00,0.00,0.00
2014-09-16 06:10:00,2,46132,0,0.00,2,2,0,2,42126,50000,2714,46540,0,0,0,0,0.00,0.00,0.00,0.00
2014-09-16 06:20:00,2,44573,0,0.00,2,2,0,2,37395,50000,3837,44430,0,0,0,0,0.00,0.00,0.00,0.00
2014-09-16 06:30:00,2,48145,0,0.00,2,2,0,2,42853,50000,2295,49016,0,0,0,0,0.00,0.00,0.00,0.00
2014-09-16 06:40:00,2,46463,0,0.00,2,2,0,2,38417,50000,3858,47433,0,0,0,0,0.00,0.00,0.00,0.00
2014-09-16 06:50:00,2,46799,0,0.00,2,2,0,2,42323,50000,2957,47071,0,0,0,0,0.00,0.00,0.00,0.00
2014-09-16 07:00:00,2,49375,0,0.00,2,2,0,2,45782,50000,1343,50000,0,0,0,0,0.00,0.00,0.00,0.00
2014-09-16 07:10:00,2,43423,0,0.00,2,2,0,2,35550,50000,4675,45226,0,0,0,0,0.00,0.00,0.00,0.00
2014-09-16 07:20:00,2,49968,0,0.00,2,2,0,2,49682,50000,95,50000,0,0,0,0,0.00,0.00,0.00,0.00
2014-09-16 07:30:00,2,49506,0,0.00,2,2,0,2,47412,50000,858,50000,0,0,0,0,0.00,0.00,0.00,0.00
2014-09-16 07:40:00,2,48213,0,0.00,2,2,0,2,42363,50000,2783,49804,0,0,0,0,0.00,0.00,0.00,0.00
2014-09-16 07:50:00,2,48076,0,0.00,2,2,0,2,40552,50000,2963,50000,0,0,0,0,0.00,0.00,0.00,0.00
2014-09-16 08:00:00,2,49621,0,0.00,2,2,0,2,46590,50000,1013,50000,0,0,0,0,0.00,0.00,0.00,0.00
2014-09-16 08:10:00,2,49977,0,0.00,2,2,0,2,49770,50000,69,50000,0,0,0,0,0.00,0.00,0.00,0.00
2014-09-16 08:20:00,2,49408,0,0.00,2,2,0,2,44881,50000,1522,50000,0,0,0,0,0.00,0.00,0.00,0.00
2014-09-16 08:30:00,2,48974,0,0.00,2,2,0,2,46191,50000,1367,50000,0,0,0,0,0.00,0.00,0.00,0.00
2014-09-16 08:40:00,2,49902,0,0.00,2,2,0,2,49202,50000,240,50000,0,0,0,0,0.00,0.00,0.00,0.00
2014-09-16 08:50:00,2,49873,0,0.00,2,2,0,2,48733,50000,380,50000,0,0,0,0,0.00,0.00,0.00,0.00
2014-09-16 09:00:00,2,50000,0,0.00,2,2,0,2,50000,50000,0,50000,0,0,0,0,0.00,0.00,0.00,0.00
2014-09-16 09:10:00,2,50000,0,0.00,2,2,0,2,50000,50000,0,50000,0,0,0,0,0.00,0.00,0.00,0.00
2014-09-16 09:20:00,2,49544,0,0.00,2,2,0,2,46923,50000,894,49878,0,0,0,0,0.00,0.00,0.00,0.00
2014-09-16 09:30:00,2,49417,0,0.00,2,2,0,2,46371,50000,1129,50000,0,0,0,0,0.00,0.00,0.00,0.00
2014-09-16 09:40:00,2,47480,0,0.00,2,2,0,2,43033,50000,2329,47942,0,0,0,0,0.00,0.00,0.00,0.00
2014-09-16 09:50:00,2,49142,0,0.00,2,2,0,2,42899,50000,2127,50000,0,0,0,0,0.00,0.00,0.00,0.00
2014-09-16 10:00:00,2,47294,0,0.00,2,2,0,2,41813,50000,3007,48938,0,0,0,0,0.00,0.00,0.00,0.00
2014-09-16 10:10:00,2,46818,0,0.00,2,2,0,2,41635,50000,2622,46226,0,0,0,0,0.00,0.00,0.00,0.00
2014-09-16 10:20:00,2,42128,0,0.00,2,2,0,2,37887,45102,2089,42206,0,0,0,0,0.00,0.00,0.00,0.00
2014-09-16 10:30:00,2,36386,0,0.00,2,2,0,2,30983,41581,3451,36382,0,0,0,0,0.00,0.00,0.00,0.00
2014-09-16 10:40:00,2,38774,0,0.00,2,2,0,2,34977,44554,3358,37074,0,0,0,0,0.00,0.00,0.00,0.00
2014-09-16 10:50:00,2,44870,0,0.00,2,2,0,2,38481,50000,3177,44732,0,0,0,0,0.00,0.00,0.00,0.00
2014-09-16 11:00:00,2,42910,0,0.00,2,2,0,2,36798,47831,3487,42208,0,0,0,0,0.00,0.00,0.00,0.00
2014-09-16 11:10:00,2,43312,0,0.00,2,2,0,2,37525,48366,3637,42639,0,0,0,0,0.00,0.00,0.00,0.00
2014-09-16 11:20:00,2,47279,0,0.00,2,2,0,2,39919,50000,3366,48925,0,0,0,0,0.00,0.00,0.00,0.00
2014-09-16 11:30:00,2,48834,0,0.00,2,2,0,2,43536,50000,2203,50000,0,0,0,0,0.00,0.00,0.00,0.00
2014-09-16 11:40:00,2,46460,0,0.00,2,2,0,2,42008,50000,3061,45628,0,0,0,0,0.00,0.00,0.00,0.00
2014-09-16 11:50:00,2,48505,0,0.00,2,2,0,2,43317,50000,2189,49656,0,0,0,0,0.00,0.00,0.00,0.00
2014-09-16 12:00:00,2,47923,0,0.00,2,2,0,2,41826,50000,3106,50000,0,0,0,0,0.00,0.00,0.00,0.00
2014-09-16 12:10:00,1,45941,0,0.00,0,2,1,2,40304,50000,3520,47858,0,0,0,0,0.00,0.00,0.00,0.00
2014-09-16 12:20:00,0,48525,0,0.00,0,0,0,0,44080,50000,2072,49702,0,0,0,0,0.00,0.00,0.00,0.00
2014-09-16 12:30:00,0,45705,0,0.00,0,0,0,0,39989,50000,3821,46544,0,0,0,0,0.00,0.00,0.00,0.00
2014-09-16 12:40:00,2,48684,0,0.00,0,2,1,2,44737,50000,1702,49603,0,0,0,0,0.00,0.00,0.00,0.00
2014-09-16 12:50:00,2,46644,0,0.00,2,2,0,2,42107,50000,2640,47144,0,0,0,0,0.00,0.00,0.00,0.00
2014-09-16 13:00:00,2,47150,0,0.00,2,2,0,2,41044,50000,2777,47843,0,0,0,0,0.00,0.00,0.00,0.00
2014-09-16 13:10:00,2,49452,0,0.00,2,2,0,2,47099,50000,945,50000,0,0,0,0,0.00,0.00,0.00,0.00
2014-09-16 13:20:00,2,46761,0,0.00,2,2,0,2,39852,50000,3491,48364,0,0,0,0,0.00,0.00,0.00,0.00
2014-09-16 13:30:00,2,46034,0,0.00,2,2,0,2,41494,50000,2840,46766,0,0,0,0,0.00,0.00,0.00,0.00
2014-09-16 13:40:00,2,43995,0,0.00,2,2,0,2,35869,50000,5125,44541,0,0,0,0,0.00,0.00,0.00,0.00
2014-09-16 13:50:00,2,47309,0,0.00,2,2,0,2,44284,50000,1717,47434,0,0,0,0,0.00,0.00,0.00,0.00
2014-09-16 14:00:00,2,48245,0,0.00,2,2,0,2,44752,50000,1748,48524,0,0,0,0,0.00,0.00,0.00,0.00
2014-09-16 14:10:00,2,49570,0,0.00,0,2,1,2,47339,50000,890,50000,0,0,0,0,0.00,0.00,0.00,0.00
2014-09-16 14:20:00,0,49613,0,0.00,0,0,0,0,46127,50000,1162,50000,0,0,0,0,0.00,0.00,0.00,0.00
2014-09-16 14:30:00,0,49878,0,0.00,0,0,0,0,48776,50000,367,50000,0,0,0,0,0.00,0.00,0.00,0.00
2014-09-16 14:40:00,0,49766,0,0.00,0,0,0,0,48652,50000,475,50000,0,0,0,0,0.00,0.00,0.00,0.00
2014-09-16 14:50:00,0,48906,0,0.00,0,0,0,0,43108,50000,2279,50000,0,0,0,0,0.00,0.00,0.00,0.00
2014-09-16 15:00:00,1,50000,0,0.00,0,2,1,0,50000,50000,0,50000,0,0,0,0,0.00,0.00,0.00,0.00
2014-09-16 15:10:00,2,49849,0,0.00,2,2,0,2,48486,50000,454,50000,0,0,0,0,0.00,0.00,0.00,0.00
2014-09-16 15:20:00,2,50000,0,0.00,2,2,0,2,50000,50000,0,50000,0,0,0,0,0.00,0.00,0.00,0.00
2014-09-16 15:30:00,2,50000,0,0.00,2,2,0,2,50000,50000,0,50000,0,0,0,0,0.00,0.00,0.00,0.00
2014-09-16 15:40:00,2,50000,0,0.00,2,2,0,2,50000,50000,0,50000,0,0,0,0,0.00,0.00,0.00,0.00
2014-09-16 15:50:00,2,49788,0,0.00,2,2,0,2,48331,50000,503,50000,0,0,0,0,0.00,0.00,0.00,0.00
2014-09-16 16:00:00,2,49941,0,0.00,2,2,0,2,49407,50000,178,50000,0,0,0,0,0.00,0.00,0.00,0.00
2014-09-16 16:10:00,2,49915,0,0.00,2,2,0,2,49151,50000,255,50000,0,0,0,0,0.00,0.00,0.00,0.00
2014-09-16 16:20:00,2,50000,0,0.00,2,2,0,2,50000,50000,0,50000,0,0,0,0,0.00,0.00,0.00,0.00
2014-09-16 16:30:00,2,50000,0,0.00,2,2,0,2,50000,50000,0,50000,0,0,0,0,0.00,0.00,0.00,0.00
2014-09-16 16:40:00,2,50000,0,0.00,2,2,0,2,50000,50000,0,50000,0,0,0,0,0.00,0.00,0.00,0.00
2014-09-16 16:50:00,2,50000,0,0.00,2,2,0,2,50000,50000,0,50000,0,0,0,0,0.00,0.00,0.00,0.00
2014-09-16 17:00:00,2,50000,0,0.00,2,2,0,2,50000,50000,0,50000,0,0,0,0,0.00,0.00,0.00,0.00
2014-09-16 17:10:00,2,50000,0,0.00,2,2,0,2,50000,50000,0,50000,0,0,0,0,0.00,0.00,0.00,0.00
2014-09-16 17:20:00,2,50000,0,0.00,2,2,0,2,50000,50000,0,50000,0,0,0,0,0.00,0.00,0.00,0.00
2014-09-16 17:30:00,2,50000,0,0.00,2,2,0,2,50000,50000,0,50000,0,0,0,0,0.00,0.00,0.00,0.00
2014-09-16 17:40:00,2,50000,0,0.00,2,2,0,2,50000,50000,0,50000,0,0,0,0,0.00,0.00,0.00,0.00
2014-09-16 17:50:00,2,50000,0,0.00,2,2,0,2,50000,50000,0,50000,0,0,0,0,0.00,0.00,0.00,0.00
2014-09-16 18:00:00,2,50000,0,0.00,2,2,0,2,50000,50000,0,50000,0,0,0,0,0.00,0.00,0.00,0.00
2014-09-16 18:10:00,2,50000,0,0.00,2,2,0,2,50000,50000,0,50000,0,0,0,0,0.00,0.00,0.00,0.00
2014-09-16 18:20:00,2,50000,0,0.00,2,2,0,2,50000,50000,0,50000,0,0,0,0,0.00,0.00,0.00,0.00
2014-09-16 18:30:00,2,50000,0,0.00,2,2,0,2,50000,50000,0,50000,0,0,0,0,0.00,0.00,0.00,0.00
2014-09-16 18:40:00,2,50000,0,0.00,2,2,0,2,50000,50000,0,50000,0,0,0,0,0.00,0.00,0.00,0.00
2014-09-16 18:50:00,2,48265,0,0.00,2,2,0,2,39130,50000,3606,50000,0,0,0,0,0.00,0.00,0.00,0.00
2014-09-16 19:00:00,2,49663,0,0.00,2,2,0,2,47854,50000,653,50000,0,0,0,0,0.00,0.00,0.00,0.00
2014-09-16 19:10:00,2,50000,0,0.00,2,2,0,2,50000,50000,0,50000,0,0,0,0,0.00,0.00,0.00,0.00
2014-09-16 19:20:00,2,50000,0,0.00,2,2,0,2,50000,50000,0,50000,0,0,0,0,0.00,0.00,0.00,0.00
2014-09-16 19:30:00,2,50000,0,0.00,2,2,0,2,50000,50000,0,50000,0,0,0,0,0.00,0.00,0.00,0.00
2014-09-16 19:40:00,2,50000,0,0.00,2,2,0,2,50000,50000,0,50000,0,0,0,0,0.00,0.00,0.00,0.00
2014-09-16 19:50:00,2,50000,0,0.00,2,2,0,2,50000,50000,0,50000,0,0,0,0,0.00,0.00,0.00,0.00
2014-09-16 20:00:00,2,50000,0,0.00,2,2,0,2,50000,50000,0,50000,0,0,0,0,0.00,0.00,0.00,0.00
2014-09-16 20:10:00,2,50000,0,0.00,2,2,0,2,50000,50000,0,50000,0,0,0,0,0.00,0.00,0.00,0.00
2014-09-16 20:20:00,2,50000,0,0.00,2,2,0,2,50000,50000,0,50000,0,0,0,0,0.00,0.00,0.00,0.00
2014-09-16 20:30:00,2,50000,0,0.00,2,2,0,2,50000,50000,0,50000,0,0,0,0,0.00,0.00,0.00,0.00
2014-09-16 20:40:00,2,50000,0,0.00,2,2,0,2,50000,50000,0,50000,0,0,0,0,0.00,0.00,0.00,0.00
2014-09-16 20:50:00,2,50000,0,0.00,2,2,0,2,50000,50000,0,50000,0,0,0,0,0.00,0.00,0.00,0.00
2014-09-16 21:00:00,2,50000,0,0.00,2,2,0,2,50000,50000,0,50000,0,0,0,0,0.00,0.00,0.00,0.00
2014-09-16 21:10:00,2,50000,0,0.00,2,2,0,2,50000,50000,0,50000,0,0,0,0,0.00,0.00,0.00,0.00
2014-09-16 21:20:00,2,49940,0,0.00,2,2,0,2,49399,50000,180,50000,0,0,0,0,0.00,0.00,0.00,0.00
2014-09-16 21:30:00,2,50000,0,0.00,2,2,0,2,50000,50000,0,50000,0,0,0,0,0.00,0.00,0.00,0.00
2014-09-16 21:40:00,2,50000,0,0.00,2,2,0,2,50000,50000,0,50000,0,0,0,0,0.00,0.00,0.00,0.00
2014-09-16 21:50:00,2,49856,0,0.00,2,2,0,2,49213,50000,290,50000,0,0,0,0,0.00,0.00,0.00,0.00
2014-09-16 22:00:00,2,49391,0,0.00,2,2,0,2,43909,50000,1827,50000,0,0,0,0,0.00,0.00,0.00,0.00
2014-09-16 22:10:00,2,40069,0,0.00,2,2,0,2,29986,50000,6117,39898,0,0,0,0,0.00,0.00,0.00,0.00
2014-09-16 22:20:00,2,48910,0,0.00,2,2,0,2,47024,50000,1129,49244,0,0,0,0,0.00,0.00,0.00,0.00
2014-09-16 22:30:00,2,49428,0,0.00,2,2,0,2,46145,50000,1145,50000,0,0,0,0,0.00,0.00,0.00,0.00
2014-09-16 22:40:00,2,49953,0,0.00,2,2,0,2,49530,50000,141,50000,0,0,0,0,0.00,0.00,0.00,0.00
2014-09-16 22:50:00,2,49555,0,0.00,2,2,0,2,46315,50000,1089,50000,0,0,0,0,0.00,0.00,0.00,0.00
2014-09-16 23:00:00,2,49972,0,0.00,2,2,0,2,49719,50000,84,50000,0,0,0,0,0.00,0.00,0.00,0.00
2014-09-16 23:10:00,2,49474,0,0.00,2,2,0,2,47274,50000,993,50000,0,0,0,0,0.00,0.00,0.00,0.00
2014-09-16 23:20:00,2,49809,0,0.00,2,2,0,2,48087,50000,574,50000,0,0,0,0,0.00,0.00,0.00,0.00
2014-09-16 23:30:00,2,49655,0,0.00,2,2,0,2,46546,50000,1036,50000,0,0,0,0,0.00,0.00,0.00,0.00
2014-09-16 23:40:00,2,49756,0,0.00,2,2,0,2,47780,50000,662,50000,0,0,0,0,0.00,0.00,0.00,0.00
2014-09-16 23:50:00,2,49637,0,0.00,2,2,0,2,48183,50000,650,50000,0,0,0,0,0.00,0.00,0.00,0.00
